Tracking 19832 objects as of 25-Aug-2019
HD Live streaming from Space Station
objects crossing your sky now

COSMOS 2251 DEB

Track COSMOS 2251 DEB now!
10-day predictions


NORAD ID: 33791
Int'l Code: 1993-036AG
Perigee: 762.8 km
Apogee: 809.9 km
Inclination: 74.2 °
Period: 100.4 minutes
Semi major axis: 7157 km
RCS: 0.2004 m2 (medium)
Launch date: June 16, 1993
Source: Commonwealth of Independent States (former USSR) (CIS)
Launch site: PLESETSK MISSILE AND SPACE COMPLEX (PKMTR)

Note: This is SATELLITE DEBRIS
aabbcc
Your satellite tracking list
Your tracking list is empty




NASA's NSSDC Master Catalog

Two Line Element Set (TLE):
1 33791U 93036AG  19236.56169177  .00000224  00000-0  89225-4 0  9995
2 33791  74.1763 270.3963 0032848  26.6168 126.3915 14.33755610550009
Source of the keplerian elements: AFSPC